OBJECT H, 59780

Orbit data source: Space-Track

You're viewing an Uncataloged Satellite

Recently launched and/or uncataloged satellites may have evolving metadata. Metadata may include but not limited to: Owner, Maufacturer, Bus, Motor, and Mission.

OBJECT H, 59780 is a satellite owned by Byuro 1440 (CIS) in SSO that was launched on Thu, 16 May 2024 UTC via a SOYUZ-2-1B launch vehicle from the Plesetsk Missile And Space Complex (PKMTR). Unknown objects in Earth's orbit typically refer to objects detected orbiting the Earth but have not yet been identified or cataloged. These objects could be anything from previously untracked satellites, spent rocket stages, debris from satellite collisions, or even natural meteoroids temporarily captured by Earth's gravity.

Loading next visibility...
Identifier
59780, 2024-092H
Orbit
SSO
Country
Flag of CISCIS
Related business
Manufacturer
Byuro 1440
Mission
Operational Commercial Communications
Bus & Motor
RASSVET-2, Unknown motor
Mass
120 kg wet, 120 kg dry
Launch date (UTC)
2024-05-16 (2 years ago)
Launch vehicle
SOYUZ-2-1B
Launch site
Plesetsk Missile And Space Complex (PKMTR)
Object type
Unknown
Shape & HBR
Box + 2 Pan, 2.5 m
Radar Cross Section
1.622 m², Large (>1 m²)

Expand to show TLE details & history
Last TLE update: 5 hours ago

TLE from 5 hours ago
0 OBJECT H
1 59780U 24092H   26150.19579133  .00000217  00000-0  97641-4 0  9999
2 59780  98.6678 269.2502 0011113 261.4617  98.5307 14.31838655106323
Epoch: 2026-05-30T04:41Z
TLE epoch observation values (Epoch: 2026-05-30T04:41:56.370Z)
Latitude
-0.00004°
Longitude
-48.94997°
Altitude
789.713 km
Speed
7.458 km/s
True Right ascension
17h 57m 00s
True Declination
0° 00' 00"
Sunlit
Object was in full shadow at epoch
Visualization orbit readout
Latitude
Unknown
Longitude
Unknown
Altitude
Unknown
Speed
Unknown
Apparent Right ascension
Unknown
Apparent Declination
Unknown
Sunlit
N/A
Visualization observer readout
Local Sidereal Time
19:14:55
Azimuth
Unknown
Elevation
Unknown
Doppler factor
Unknown
Orbital elements
Apogee altitude
790.69 km
Perigee altitude
774.774 km
Semi-major axis
7,160.869 km
Eccentricity
0.00111
Inclination
98.6678°
RAAN
269.2502°
Arg. of periapsis
261.4617°
True anomaly
98.65661°
Mean anomaly
98.5307°
Eccentric anomaly
98.59366°
Mean motion
3.58174 °/min
Orbital period
100.51 mins
BSTAR
0.000097641
Loading maneuver chart data...
Computing Atmospheric mass density...
Loading historical data...
Loading historical data...
Loading historical data...
Loading historical data...
Loading historical data...
Loading historical data...
Loading historical data...

Documentation

Showing up to 5 results
|